Regional Weather Roundup
Issued by NWS

Home | Current Version | Previous Version | Graphics & Text | Print | Product List | Glossary On
Versions: 1 2 3 4 5 6 7 8 9 10 11 12 13 14 15 16 17 18 19 20 21 22 23 24 25 26 27 28 29 30 31 32 33 34 35 36 37 38 39 40 41 42 43 44 45 46 47 48 49 50
631
ASUS45 KTFX 281910
RWRMT
MONTANA REGIONAL WEATHER ROUNDUP
NATIONAL WEATHER SERVICE GREAT FALLS MT
100 PM MDT SUN MAY 28 2017

NOTE: "FAIR" INDICATES FEW OR NO CLOUDS BELOW 12000 FEET WITH NO
SIGNIFICANT WEATHER AND/OR OBSTRUCTIONS TO VISIBILITY.

MTZ001>007-043-282000-
WEST OF THE DIVIDE

CITY           SKY/WX    TMP DP  RH WIND       PRES   REMARKS
KALISPELL      SUNNY     74  46  36 VRB3      30.20F
MISSOULA       SUNNY     71  46  40 CALM      30.22F
BUTTE          SUNNY     67  33  28 VRB5      30.29F
MULLAN PASS    MOSUNNY   63  35  35 CALM      30.32F
ANACONDA         N/A     70  36  28 NE7       30.26F
DEER LODGE       N/A     70  39  32 NE5       30.28F
EUREKA           N/A     73  43  33 NE3       30.19F
HAMILTON         N/A     72  43  35 N5        30.22F
PLAINS           N/A     77  47  34 CALM      30.17F
RONAN            N/A     73  45  36 CALM      30.24F
$$

MTZ008-052>055-282000-
SOUTHWEST MONTANA

CITY           SKY/WX    TMP DP  RH WIND       PRES   REMARKS
BOZEMAN        SUNNY     70  38  31 CALM      30.25F
DILLON         SUNNY     68  33  27 VRB5      30.28S
ENNIS          SUNNY     68  32  26 CALM      30.33F
THREE FORKS      N/A     71  36  27 CALM      30.22F
TWIN BRIDGES     N/A     69  33  26 SW8       30.23F
$$

MTZ009-010-012-014-046-048-049-054-282000-
EAST SLOPES AND CENTRAL MONTANA

CITY           SKY/WX    TMP DP  RH WIND       PRES   REMARKS
CUT BANK       MOSUNNY   71  41  33 NE14      30.25F
GREAT FALLS    CLOUDY    70  41  34 NE9       30.24F
MALMSTROM AFB  SUNNY     68  50  51 E12       30.25F
HELENA         SUNNY     74  40  29 VRB5      30.22F
CHOTEAU          N/A     70  41  35 NE8       30.26F
CONRAD           N/A     71  48  43 NW8       30.25S
$$

MTZ011-013-016-021-045-047-050-051-282000-
NORTH CENTRAL MONTANA

CITY           SKY/WX    TMP DP  RH WIND       PRES   REMARKS
HAVRE          MOSUNNY   75  35  23 NW13      30.18F
LEWISTOWN      PTSUNNY   66  43  43 NW13G23   30.23S
N BAR RANCH      N/A     68  41  37 NW21G33   30.23F
CHINOOK          N/A     72  36  26 N17G28    30.17S
$$

MTZ017>020-022>027-061-062-282000-
NORTHEAST MONTANA

CITY           SKY/WX    TMP DP  RH WIND       PRES   REMARKS
GLASGOW        SUNNY     73  32  22 N26G40    30.08S
JORDAN           N/A     75  36  24 N25G37    30.09S
SIDNEY         MOSUNNY   73  37  27 NW24G36   29.99R
WOLF POINT     SUNNY     75  34  22 NW23G38   30.05R
MALTA          SUNNY     73  34  23 NW24G32   30.12S
PLENTYWOOD       N/A     64  34  32 NW25G38   30.00S
POPLAR           N/A     70  34  26 N22G30    30.04S
SCOBEY           N/A     66  34  30 NW21      30.04R
$$

MTZ028>42-056>058-282000-
SOUTHCENTRAL AND SOUTHEAST MONTANA

CITY           SKY/WX    TMP DP  RH WIND       PRES   REMARKS
BAKER          MOSUNNY   69  35  28 W26G35    30.02F
BILLINGS       TSTM      66  41  40 N18G37    30.19S
LIVINGSTON     SUNNY     71  44  37 W10G18    30.23F
MILES CITY     PTSUNNY   79  35  20 NW26G38   30.05S
BIG TIMBER     CLOUDY    55  46  71 N15       30.28R
EKALAKA          N/A     65  37  35 NW16      30.04F
FORSYTH          N/A     75  37  25 NW18G29   30.08S
LAUREL           N/A     71  41  33 W5        30.16F
ROUNDUP          N/A     75  36  24 NW18      30.07F
$$

REGIONAL REPORTS...DAKOTAS

CITY           SKY/WX    TMP DP  RH WIND       PRES   REMARKS
WILLISTON      MOSUNNY   72  35  25 N28G41    29.99R
MINOT          MOSUNNY   69  39  33 NW33G44   29.85S
DICKINSON      MOSUNNY   72  29  20 NW35G46   29.93S
BEACH            N/A     72  34  25 N32G41    30.02S
CROSBY         PTSUNNY   64  36  34 N30G39    29.97R
TIOGA            N/A     66  36  32 N31G41    29.95F
WATFORD CITY     N/A     70  37  30 NW25G38   29.95S
BISMARCK       MOSUNNY   75  39  27 NW20G32   29.87F
GRAND FORKS    LGT RAIN  56  50  80 NW16G30   29.72F
FARGO          PTSUNNY   67  44  43 W21G29    29.75F
BUFFALO SD       N/A     66  38  35 NW26G40   29.95F
RAPID CITY     MOSUNNY   73  38  27 NW20G30   30.07F
$$

REGIONAL REPORTS...WYOMING/IDAHO/WASHINGTON

CITY           SKY/WX    TMP DP  RH WIND       PRES   REMARKS
GILLETTE       MOSUNNY   69  42  37 NW23G33   30.15F
SHERIDAN       SUNNY     70  42  36 NW18      30.18F
BUFFALO WY     MOSUNNY   66  40  38 N21G28    30.23F
CODY           SUNNY     68  35  29 VRB6      30.27F
YELLOWSTONE LA   N/A     51  37  58 VRB6      30.41F
IDAHO FALLS    MOSUNNY   69  42  37 VRB3      30.28F
SALMON         SUNNY     68  43  40 SW3       30.22F
BOISE          SUNNY     78  40  25 VRB6      30.19F
SPOKANE        MOSUNNY   79  41  25 NE7       30.17F
$$

REGIONAL REPORTS...ALBERTA

CITY           SKY/WX    TMP DP  RH WIND       PRES   REMARKS
EDMONTON       SUNNY     63  37  39 N10       30.28F
CALGARY        MOSUNNY   66  37  34 CALM      30.27S
LETHBRIDGE     MOSUNNY   68  41  37 E7        30.25F
MEDICINE HAT   MOSUNNY   72  36  26 NW20G28   30.21S
WATERTON GATE    N/A     68  43  40 NE7         N/A
CARDSTON         N/A     68  39  34 NE6         N/A
MILK RIVER       N/A     70  43  37 N9          N/A
$$

REGIONAL REPORTS...SASKATCHEWAN

CITY           SKY/WX    TMP DP  RH WIND       PRES   REMARKS
SWIFT CURRENT  MOSUNNY   64  32  29 N22G35    30.12R
REGINA         PTSUNNY   64  37  36 N28G37    29.99F
SASKATOON      MOSUNNY   61  37  41 N23G32    30.10R
CYPRESS HILLS    N/A     61  32  33 NW12G25     N/A
VAL MARIE        N/A     68  32  26 N23G32      N/A
ROCKGLEN         N/A     63  34  34 N22G31      N/A
$$




USA.gov is the U.S. government's official web portal to all federal, state and local government web resources and services.